Location: Moydans
(44.3997°N, 5.5038°E)
Time: 04:36:10
(UTC+01:00)

N. Korean satellite - Visible Passes

Search period start: 07 December 2022 00:00
Search period end: 17 December 2022 00:00
Orbit: 421 x 452 km, 97.3° (Epoch: 06 December)

Date Brightness Start Highest point End Pass type
(mag) Time Alt. Az. Time Alt. Az. Time Alt. Az.
07 Dec 7.7 05:38:36 10° NNE 05:41:50 41° E 05:45:00 10° S visible
07 Dec 8.2 07:12:25 10° NW 07:13:58 13° WNW 07:15:29 10° W visible
07 Dec 8.8 17:41:48 10° SSW 17:44:47 28° W 17:47:48 10° NW visible
08 Dec 9.7 05:00:51 10° ENE 05:02:36 13° E 05:04:19 10° ESE visible
08 Dec 6.9 06:32:08 10° N 06:35:15 35° WNW 06:38:19 10° SW visible
09 Dec 6.7 05:52:54 10° NNE 05:56:16 66° E 05:59:35 10° S visible
09 Dec 9.5 17:56:44 10° SW 17:59:15 19° W 18:01:47 10° NW visible
10 Dec 9.1 05:14:30 10° NE 05:17:03 20° E 05:19:33 10° SE visible
10 Dec 7.5 06:46:45 10° NNW 06:49:30 23° WNW 06:52:13 10° SW visible
11 Dec 6.2 06:07:10 10° N 06:10:32 78° WNW 06:13:50 10° SSW visible
11 Dec 9.8 18:11:55 10° WSW 18:13:36 13° W 18:15:17 10° WNW visible
12 Dec 8.3 05:28:20 10° NE 05:31:19 29° E 05:34:15 10° SSE visible
12 Dec 7.9 07:01:24 10° NNW 07:03:34 16° WNW 07:05:44 10° WSW visible
12 Dec 8.1 17:30:59 10° S 17:34:11 39° W 17:37:26 10° NNW visible
13 Dec 6.5 06:21:22 10° N 06:24:37 48° WNW 06:27:49 10° SSW visible
14 Dec 7.4 05:44:56 41° ENE 05:45:24 44° E 05:48:35 10° S visible
14 Dec 8.4 07:18:21 11° W 07:18:21 11° W 07:18:37 10° W visible
14 Dec 8.9 17:45:22 10° SSW 17:48:16 26° W 17:51:12 10° NW visible
15 Dec 9.5 05:06:02 14° E 05:06:02 14° E 05:07:49 10° SE visible
15 Dec 7.4 06:39:25 27° WSW 06:39:25 27° WSW 06:41:30 10° SW visible
16 Dec 7.1 06:00:16 43° S 06:00:16 43° S 06:02:36 10° S visible
16 Dec 9.5 17:59:49 10° SW 18:02:13 18° W 18:04:38 10° NW visible
